Showing default

AZERSPACE 2/INTELSAT 38, 43632

Orbit data source: Space-Track

AZERSPACE 2/INTELSAT 38, 43632 is a payload satellite owned by Azerkosmos (AZ) in GEO that was launched on Tue, 25 Sep 2018 UTC via an ARIANE 5ECA launch vehicle from the French Guiana (FRGUI). Payload-class satellites include a variety of spacecraft equipped with specific instruments for various scientific and technological missions. These include communications satellites like Starlink; space stations such as the ISS; scientific satellites like the Hubble; Earth observation satellites from companies like Planet Labs, Umbra, and HawkEye 360; GPS; miniature CubeSats for education and research; and military/defense satellites.

Not visible in the next 10 days
Identifier
43632, 2018-074A
Orbit
GEO
Country
Flag of AZAZ / AZER
Related business
Manufacturer
Maxar SSL
Mission
Operational Civil Communications
Bus & Motor
SSL-1300, R-4D
Mass
3,500 kg wet, ~2,000 kg dry
Launch date (UTC)
2018-09-25 (7 years ago)
Launch vehicle
ARIANE 5ECA
Launch site
French Guiana (FRGUI)
Object type
Payload
Rocket body
Debris
Shape & HBR
Box + 2 Pan, 13.5 m
Radar Cross Section
36.085 m², Large (>1 m²)

Expand to show TLE details & history
Last TLE update: 1 day ago

TLE from 1 day ago
0 AZERSPACE 2/INTELSAT 38
1 43632U 18074A   26071.29767126  .00000138  00000-0  00000+0 0  9995
2 43632   0.0162 167.1748 0002142 185.4789 329.5515  1.00266327 27471
Epoch: 2026-03-12T07:08Z
TLE epoch observation values (Epoch: 2026-03-12T07:08:38.796Z)
Latitude
0.01238°
Longitude
45.10033°
Altitude
35,779.791 km
Speed
3.075 km/s
True Right ascension
21h 28m 50s
True Declination
0° 00' 45"
Sunlit
Object was in daylight at epoch
Visualization orbit readout
Latitude
Unknown
Longitude
Unknown
Altitude
Unknown
Speed
Unknown
Apparent Right ascension
Unknown
Apparent Declination
Unknown
Sunlit
N/A
Visualization observer readout
Local Sidereal Time
20:21:26
Azimuth
Unknown
Elevation
Unknown
Doppler factor
Unknown
Orbital elements
Apogee altitude
35,798.228 km
Perigee altitude
35,780.163 km
Semi-major axis
42,167.332 km
Eccentricity
0.00021
Inclination
0.0162°
RAAN
167.1748°
Arg. of periapsis
185.4789°
True anomaly
329.53906°
Mean anomaly
329.5515°
Eccentric anomaly
329.54528°
Mean motion
0.25066 °/min
Orbital period
1,436.23 mins
BSTAR
0
Loading maneuver chart data...
Computing Atmospheric mass density...
Loading historical data...
Loading historical data...
Loading historical data...
Loading historical data...
Loading historical data...
Loading historical data...
Loading historical data...
Other satellites on launch #74 in the year 2018 (2018-09-25 UTC)

Documentation

Showing up to 5 results
|